Historyczne dane pomiarowe

Dodano dane terminowe – wersja testowa.

Dane z okresu 1951-2019

Wersja bazy: 1.34 [2019-03-16, lista zmian], aktualizacja planowana na 2019-04-15

Dane meteo z obszaru Polski uzyskane na podstawie danych udostępnionych przez Instytut Meteorologii i Gospodarki Wodnej – Państwowy Instytut Badawczy.

 

Wybierz Datę:    

       

TemperaturaWilgotnośćWiatrCiśnienieOpadyŚniegCzas trwania zjawisk
 Stacja t tx tn tng RH VA  wxwx mslp ppp RRR   cm mm wxwxwxwxwxwxwx
1991-03-15 8.6 18.4 0.8 -3.0 67.5- 0.0 1.0---- 0.0------------
1991-03-14 7.9 17.1 1.6 -2.5 71.8- 2.7 0.3---- 0.0------------
1991-03-13 9.1 14.2 5.6 2.5 70.5- 5.7 2.0---- 0.0------------
1991-03-12 7.5 13.8 2.8 -1.0 77.5- 7.3 1.0---- 0.2------------
1991-03-11 4.7 7.7 2.4 -0.1 91.3- 8.0 0.3---- 0.0------------
1991-03-10 2.8 7.2 0.2 -3.2 88.3- 6.0 1.0---- 0.0------------
1991-03-09 7.2 15.1 3.0 -1.5 74.3- 7.3 2.0---- 0.0------------
1991-03-08 7.0 14.4 1.9 -2.2 73.5- 4.0 1.0---- 0.0------------
1991-03-07 3.2 9.9 -1.1 -3.9 68.8- 0.7 2.0---- 0.0------------
1991-03-06 1.3 5.5 -0.7 -3.2 84.8- 6.7 3.0---- 0.0------------
1991-03-05 4.5 7.4 2.6 -0.8 77.0- 8.0 0.0---- 0.0------------
1991-03-04 4.7 9.7 -0.1 -3.7 80.5- 6.0 1.0---- 0.0------------
1991-03-03 2.7 7.7 -0.1 -2.3 74.5- 8.0 0.7---- 0.0------------
1991-03-02 0.6 5.2 -2.9 -5.1 75.3- 6.3 1.3---- 0.0------------
1991-03-01 0.0 4.8 -3.8 -6.5 79.0- 1.3 1.7---- 0.0------------
1991-02-28 0.2 1.5 -0.4 -1.2 78.5- 8.0 1.0---- 0.0------------
1991-02-27 0.8 2.7 -1.3 -1.4 71.3- 7.3 2.3---- 0.0------------
1991-02-26 4.3 7.6 2.2 -0.2 78.3- 7.3 1.7---- 0.1------------
1991-02-25 4.7 11.1 -1.3 -3.9 81.0- 5.3 1.7---- 0.1-- 3---------
1991-02-24 4.7 7.2 3.3 -1.6 87.8- 8.0 1.0---- 0.0-- 6---------
1991-02-23 4.3 9.1 1.1 -2.0 70.3- 4.0 1.7---- 0.1-- 11---------
1991-02-22 2.2 10.0 -3.0 -6.7 76.3- 6.0 0.7---- 0.3-- 13---------
1991-02-21 -0.6 6.3 -5.8-11.4 84.0- 3.7 0.3---- 0.0-- 15---------
1991-02-20 -1.5 3.1 -6.0-11.5 81.0- 6.7 0.0---- 0.0-- 16---------
1991-02-19 -4.1 3.2 -9.1-14.0 77.0- 2.7 0.0---- 0.0-- 17---------
1991-02-18 -0.6 2.8 -5.2-12.9 74.8- 4.3 3.3---- 0.0-- 19---------
1991-02-17 -4.5 -0.2 -9.3-15.0 82.5- 4.7 1.7---- 0.0-- 21---------
1991-02-16 -9.2 -5.0-14.1-20.8 81.8- 7.3 0.7---- 0.9-- 21---------
1991-02-15 -6.6 -1.9-10.3-16.0 69.3- 1.7 1.7---- 0.0-- 23---------
1991-02-14 -5.3 -2.8 -6.5-10.2 78.0- 5.7 3.3---- 0.0-- 25---------
1991-02-13 -3.9 -2.1 -4.8 -4.8 87.3- 8.0 2.3---- 1.0-- 24---------
1991-02-12 -3.1 -0.8 -5.0 -8.7 88.0- 7.3 1.0---- 14.5-- 9---------
1991-02-11 1.3 5.4 -1.6 -1.6 87.5- 8.0 1.7---- 3.9-- 6---------
1991-02-10 -2.8 2.0 -8.8-13.5 95.5- 5.7 0.3---- 0.4-- 8---------
1991-02-09 -1.3 1.5 -3.6 -4.3 91.0- 8.0 0.0---- 0.0-- 8---------
1991-02-08 -5.9 1.4-11.9-17.8 85.5- 8.0 1.7---- 2.5-- 6---------
1991-02-07 -8.7 -4.3-11.8-14.0 76.8- 5.3 1.7---- 0.0-- 6---------
1991-02-06 -9.0 -5.4-14.1-14.3 82.5- 7.0 2.7---- 0.0-- 7---------
1991-02-05-13.8 -8.7-15.3-18.7 80.8- 7.3 2.3---- 0.9-- 6---------
1991-02-04 -8.3 -6.3-10.0-16.2 78.8- 8.0 1.0---- 0.8-- 5---------
1991-02-03-10.8 -5.0-16.1-18.5 73.3- 0.0 0.7---- 0.3-- 3---------
1991-02-02-14.5 -8.9-19.2-21.0 67.5- 0.7 1.0---- 0.0-- 3---------
1991-02-01-16.1-12.0-20.3-21.4 73.5- 1.7 1.3---- 0.0-- 3---------
1991-01-31-14.3-10.9-16.3-18.2 70.5- 0.0 2.0---- 0.0-- 3---------
1991-01-30 -4.9 -0.1-11.0-14.0 74.5- 3.0 2.3---- 0.0-- 3---------
1991-01-29 0.1 1.6 -0.7 -1.7 91.0- 8.0 2.0---- 0.5-- 1---------
1991-01-28 0.6 1.6 0.0 -0.9 90.0- 8.0 2.0---- 0.6-- 2---------
1991-01-27 0.8 2.1 0.0 -1.0 86.5- 8.0 2.3---- 1.5------------
1991-01-26 -0.3 1.0 -1.2 -3.5 92.8- 8.0 2.7---- 0.4------------
1991-01-25 -0.5 1.6 -2.9 -6.5 88.8- 3.7 2.0---- 0.0------------
1991-01-24 0.5 1.3 -0.5 -1.1 88.8- 8.0 2.7---- 0.1------------
1991-01-23 0.5 1.8 -0.7 -1.1 88.8- 7.7 2.0---- 0.0------------
1991-01-22 -4.0 -0.2 -8.3-11.5 87.5- 7.3 0.3---- 0.0------------
1991-01-21 -4.2 1.0 -8.2-12.3 84.0- 0.3 1.3---- 0.0------------
1991-01-20 -5.2 -0.4 -7.1 -9.2 92.5- 2.7 0.0---- 0.0------------
1991-01-19 -6.3 -3.9 -8.0-10.8 95.5- 8.0 0.7---- 0.0------------
1991-01-18 -4.7 2.7 -9.7-12.8 81.3- 0.0 0.7---- 0.0------------
1991-01-17 -6.0 0.7-10.0-12.5 85.5- 0.0 0.3---- 0.0------------
1991-01-16 -3.0 0.2 -5.3-10.3 70.8- 0.7 0.7---- 0.0------------
1991-01-15 -4.9 -1.8 -8.5-11.6 88.8- 7.7 1.7---- 0.2------------
419.4 ms

 

Źródłem pochodzenia danych jest Instytut Meteorologii i Gospodarki Wodnej – Państwowy Instytut Badawczy. Dane Instytutu Meteorologii i Gospodarki Wodnej – Państwowego Instytutu Badawczego zostały przetworzone.

Dane źródłowe można odnaleźć na stronie https://dane.imgw.pl